PulseSat

PulseSat

GSAT0211 (PRN E02)

Last updated on March 24, 2019, 3:12 a.m. UTC

1 41549U 16030A   19081.64791312 -.00000017  00000-0  00000+0 0  9993
2 41549  56.6550 294.3478 0002428 350.0008  10.0232  1.70474512 17581
UTC
Height (km)
Latitude
Longitude
Inclination
Orbital Period

Next 30 passes for location: Hong Kong

Rise time Rise Azimuth (degrees) Set time Set Azimuth (degrees) Duration Max altitude (degrees)

No matching passes for this satellites

PulseSat

PulseSat is the new satellites software and hardware trackering solution by Pulsely.
Satellite Two Line Element Set source: US Air Force Space Command

Download PulseSat for iOS
© 2017 Pulsely Limited